Satellite-Ground Cal/Val Region Overpasses Predictions

Prediction of Satellite NPP Overpassing Cal/Val Region: PacNW

Region Location: (Latitude: 10.00, Longitude: 139.50) to (Latitude: 22.70, Longitude: 165.60).

Table of predicted overpasses for the next 14.0 days since TLE Epoch: 10/26/2013
Interval Starting Time Starting Location Ending Time Ending Location
1 10/27/2013 02:11:27 ( 19.24, 165.60) 10/27/2013 02:12:26 ( 22.70, 164.74)
2 10/27/2013 03:50:20 ( 10.02, 142.39) 10/27/2013 03:53:46 ( 22.12, 139.51)
3 10/27/2013 14:40:42 ( 22.70, 165.03) 10/27/2013 14:44:18 ( 10.02, 162.00)
4 10/27/2013 16:22:12 ( 22.70, 139.65) 10/27/2013 16:22:22 ( 22.11, 139.51)
5 10/28/2013 03:31:18 ( 10.03, 147.15) 10/28/2013 03:34:53 ( 22.65, 144.14)
6 10/28/2013 16:03:11 ( 22.69, 144.41) 10/28/2013 16:06:47 ( 10.01, 141.39)
7 10/29/2013 03:12:17 ( 10.03, 151.91) 10/29/2013 03:15:52 ( 22.65, 148.90)
8 10/29/2013 15:44:10 ( 22.69, 149.17) 10/29/2013 15:47:46 ( 10.01, 146.15)
9 10/30/2013 02:53:15 ( 10.03, 156.67) 10/30/2013 02:56:50 ( 22.66, 153.66)
10 10/30/2013 15:25:08 ( 22.68, 153.93) 10/30/2013 15:28:44 ( 10.01, 150.91)
11 10/31/2013 02:34:14 ( 10.04, 161.43) 10/31/2013 02:37:49 ( 22.66, 158.42)
12 10/31/2013 15:06:07 ( 22.68, 158.69) 10/31/2013 15:09:43 ( 10.00, 155.67)
13 11/01/2013 02:15:56 ( 12.63, 165.59) 11/01/2013 02:18:47 ( 22.67, 163.18)
14 11/01/2013 03:56:42 ( 10.05, 140.81) 11/01/2013 03:58:18 ( 15.69, 139.50)
15 11/01/2013 14:47:05 ( 22.67, 163.45) 11/01/2013 14:50:40 ( 10.05, 160.44)
16 11/02/2013 03:37:41 ( 10.06, 145.57) 11/02/2013 03:41:16 ( 22.68, 142.56)
17 11/02/2013 14:31:10 ( 11.75, 165.59) 11/02/2013 14:31:39 ( 10.05, 165.20)
18 11/02/2013 16:09:34 ( 22.66, 142.83) 11/02/2013 16:13:09 ( 10.04, 139.82)
19 11/03/2013 03:18:38 ( 10.01, 150.34) 11/03/2013 03:22:14 ( 22.69, 147.32)
20 11/03/2013 15:50:32 ( 22.65, 147.59) 11/03/2013 15:54:07 ( 10.04, 144.58)
21 11/04/2013 02:59:37 ( 10.02, 155.10) 11/04/2013 03:03:13 ( 22.70, 152.08)
22 11/04/2013 15:31:31 ( 22.64, 152.35) 11/04/2013 15:35:06 ( 10.03, 149.34)
23 11/05/2013 02:40:35 ( 10.03, 159.86) 11/05/2013 02:44:10 ( 22.65, 156.85)
24 11/05/2013 15:12:28 ( 22.69, 157.12) 11/05/2013 15:16:04 ( 10.02, 154.10)
25 11/06/2013 02:21:34 ( 10.04, 164.62) 11/06/2013 02:25:09 ( 22.66, 161.61)
26 11/06/2013 14:53:27 ( 22.68, 161.88) 11/06/2013 14:57:03 ( 10.01, 158.86)
27 11/07/2013 03:44:03 ( 10.05, 144.00) 11/07/2013 03:47:38 ( 22.68, 140.99)
28 11/07/2013 14:35:37 ( 18.45, 165.60) 11/07/2013 14:38:00 ( 10.06, 163.63)
29 11/07/2013 16:15:55 ( 22.67, 141.26) 11/07/2013 16:17:58 ( 15.45, 139.51)
30 11/08/2013 03:25:00 ( 10.01, 148.77) 11/08/2013 03:28:36 ( 22.69, 145.75)
31 11/08/2013 15:56:54 ( 22.66, 146.02) 11/08/2013 16:00:29 ( 10.04, 143.01)
32 11/09/2013 03:05:59 ( 10.02, 153.53) 11/09/2013 03:09:34 ( 22.64, 150.52)


NCC Satellite Cal/Val Overpasses Prediction Service
